アトラス彗星

C/2017 T3 ( ATLAS )

English version
Home page
Updated on September 23, 2018

---------------------------------------------------------------------

・ プロフィール

発見日 2017年10月14日
発見光度 18.3等
発見者 Asteroid Terrestrial-impact Last Alert System (ATLAS) search program

・ 写真集

・ 軌道要素

Epoch 2018 July 21.0 TT = JDT 2458320.5
T 2018 July 19.14764 TT                                 MPCW
q   0.8254372            (2000.0)            P               Q
z  +0.0007933      Peri.  246.87427     +0.22871777     -0.60002603
                   Node   230.08578     +0.65987120     -0.48339256
e   0.9993452      Incl.   88.10815     -0.71572214     -0.63741697
From 525 observations 2017 Sept. 11-2018 Sept. 6, mean residual 0".5.
     Nongravitational parameters A1 = +4.05, A2 = +1.1997.

・ 星図

・ 光度変化

        m1 = 9.0 + 5 logΔ + 10.0 log r

---------------------------------------------------------------------

軌道要素はM.P.E.C. 2018-S50に掲載されたものです。
星図はステラナビゲータ Ver.10 (アストロアーツ) で作成したものです。
光度グラフはComet for Windowsで作成したものです。

---------------------------------------------------------------------

Copyright(C) Seiichi Yoshida (comet@aerith.net). All rights reserved.